Weather in Korovnovo

Russia / Kostroma Oblast     58°58′37″N   42°21′54″E
temp.,
°C
wind,
m/s
gust,
m/s
humid.,
%
clouds,
%
prec.,
mm/h
press.,
hPa
HPBL,
m
20 april, tue
tue2000:00−1ese210825 0.0 1032251
03:00−2e310835 0.0 1032237
06:00−1e310740 0.0 1032343
09:00+5ese59380 0.0 1031909
12:00+8ese57300 0.0 10301378
15:00+9ese58310 0.0 10281541
18:00+8ese49445 0.0 10261222
21:00+3ese4136577 0.0 1025420
21 april, wed
wed2100:00+2ese4147188 0.0 1023495
03:00+1e51465100 0.0 1021551
06:00+2e61757100 0.0 1016780
09:000ese71894100 0.7 1014872
12:00+2ese71586100 1.2 1012899
15:00+1se71696100 1.7 1010774
18:00+2se61695100 0.8 1008912
21:00+4sse61394100 1.3 10081143
22 april, thu
thu2200:00+3s51187100 0.1 10091000
03:00+2s51197100 0.3 1010970
06:00+3s41197100 0.3 10111075
09:00+3ssw41195100 0.6 1013910
12:00+4ssw41196100 0.3 1015799
15:00+8sw4768100 0.3 1015912
18:00+7ssw3778100 0.0 1016390
21:00+4s2892100 0.0 1018167
23 april, fri
fri2300:00+3s29945 0.0 1018168
03:00+2s27955 0.0 1019137
06:00+3s28925 0.0 1019183
09:00+9s36715 0.0 1019548
12:00+12s465510 0.0 10191496
15:00+14s46485 0.0 10181645
18:00+12se48605 0.0 1018726
21:00+7se312785 0.0 1017288
24 april, sat
sat2400:00+7se413835 0.0 1016372
03:00+6se414895 0.0 1015363
06:00+6se4139040 0.0 1014433
09:00+9se5118298 0.2 1012437
12:00+14se686255 0.0 10111249
15:00+14se58629 0.8 10091385
18:00+12ese5107177 0.8 1007888
21:00+9ese61485100 1.1 1006729